Wind_Speed
12 13 13 13 13 12 13 14 14 15 16 18 21 24 28 33 36 38 42 46 51 55 60 66 72 76 78 81 85 88 90 90 87 79 72 68 67 68 67 66 64 62 60 59
10 10 11 12 13 14 14 14 14 14 16 18 21 24 29 32 35 39 44 48 53 58 63 69 74 76 79 83 86 88 89 86 80 74 71 70 70 68 65 62 59 57 55 54
9 10 11 11 12 13 13 13 13 13 16 20 22 22 28 33 38 43 47 50 54 60 66 71 74 77 80 83 86 87 86 81 75 71 70 70 69 64 58 53 51 51 49 48
9 10 11 11 11 12 12 13 13 14 18 23 25 27 32 37 42 46 49 52 57 62 68 72 74 77 81 84 86 86 82 76 72 71 72 71 65 58 52 49 48 49 49 48
10 11 12 11 11 12 12 14 15 18 21 24 27 32 36 40 45 48 50 54 59 64 69 71 74 78 82 85 85 83 77 72 71 72 72 69 61 53 49 49 50 51 51 51
11 12 12 11 12 13 15 16 18 21 23 26 30 34 37 42 46 49 52 56 61 65 69 71 75 79 83 84 83 78 73 71 72 72 71 66 56 50 49 51 52 53 53 53
12 12 12 12 14 16 18 20 22 24 26 29 32 35 38 42 47 50 54 57 62 66 69 73 77 80 82 83 80 75 71 71 72 71 69 62 54 50 52 55 56 56 55 55
13 13 13 14 16 18 20 22 25 28 30 30 33 36 39 44 48 52 55 58 63 67 71 74 77 80 82 81 78 73 70 71 72 70 67 59 53 53 56 59 60 60 59 58
15 14 15 16 18 21 23 24 27 30 33 34 36 38 42 46 50 53 56 60 65 69 72 74 77 80 81 80 75 71 70 72 71 70 65 58 54 56 59 62 64 64 64 62
15 15 16 18 21 24 26 28 31 34 38 41 41 41 43 47 51 54 58 62 66 70 72 74 77 79 80 77 73 70 71 72 71 69 65 59 56 59 62 65 66 67 67 67
15 16 18 20 23 26 29 31 33 36 38 42 45 43 44 47 51 55 59 63 67 70 72 74 77 79 79 75 70 68 70 70 69 68 64 59 59 61 64 67 69 70 72 71
15 16 18 21 23 26 29 32 35 37 40 41 44 44 44 47 52 55 59 63 66 69 71 74 77 78 77 73 69 68 69 69 68 67 63 60 60 62 65 69 71 74 74 70
17 18 19 21 24 27 30 33 35 38 39 40 41 42 44 47 51 55 59 63 66 69 71 73 76 77 75 71 68 67 68 67 67 67 64 61 61 63 67 70 73 76 73 63
18 20 23 26 28 32 35 37 38 39 39 39 38 40 43 47 51 54 58 62 66 68 70 72 74 76 73 70 67 67 67 66 66 67 65 62 62 64 68 71 75 77 70 57
18 21 24 28 31 35 38 40 41 40 39 38 37 38 42 47 50 54 58 63 66 68 69 71 73 74 72 69 66 66 66 65 66 66 65 64 64 66 69 72 76 77 68 53
16 20 24 27 31 35 40 43 44 43 41 39 38 38 42 46 49 53 58 63 66 67 68 70 73 73 71 68 66 65 65 64 65 66 66 65 65 66 69 72 76 77 67 51
15 19 23 26 31 35 41 45 46 45 44 43 41 42 44 46 49 53 58 62 65 66 67 69 72 72 70 67 65 65 64 63 64 65 66 66 66 67 70 72 76 77 69 53
16 20 24 28 33 38 42 46 49 48 48 48 45 45 46 47 50 53 58 62 65 66 67 68 70 71 69 66 65 64 63 62 63 64 66 66 66 67 69 71 74 77 71 57
17 22 26 31 35 38 43 47 51 52 51 53 51 49 48 49 50 53 57 62 65 66 66 67 69 70 69 66 64 63 62 61 62 63 65 66 65 66 68 70 73 75 74 63
17 21 26 31 35 40 44 47 50 53 55 57 55 53 51 50 50 53 57 62 65 65 66 66 68 69 68 65 62 61 61 60 61 62 64 64 64 65 66 69 71 74 75 70
17 20 25 30 34 38 43 47 50 52 55 58 58 55 53 51 51 52 56 61 65 65 66 65 66 67 66 64 61 60 60 59 60 61 63 63 62 63 64 67 70 72 73 72
19 22 27 32 36 40 43 47 50 52 54 57 59 57 55 53 52 53 56 61 65 66 65 65 65 65 65 63 60 59 58 58 58 60 61 61 60 61 62 64 67 69 70 70
21 23 26 31 34 38 42 46 49 52 54 56 59 59 57 54 53 53 56 60 64 66 65 63 63 64 64 62 59 57 57 56 57 58 58 58 59 59 59 61 63 66 67 68
23 24 26 30 35 39 43 46 49 52 53 56 59 60 59 55 53 53 55 59 63 65 64 62 62 63 62 61 58 56 55 54 55 55 55 56 56 57 58 59 60 62 64 66
26 26 28 31 36 39 42 46 49 52 54 56 59 61 60 56 53 53 54 58 62 64 63 62 61 61 61 60 58 55 53 52 53 53 53 53 54 55 57 58 58 59 61 63
29 29 31 34 38 42 45 48 50 52 54 56 59 62 60 56 53 52 53 57 61 63 63 61 59 60 60 59 57 54 51 50 50 50 51 50 51 52 54 56 57 58 58 59
Wind_Direction
333 331 327 324 325 324 322 321 329 334 335 332 333 331 328 328 328 329 330 330 330 329 331 333 333 333 331 330 328 327 324 322 322 323 323 322 320 318 316 314 311 308 304 301
340 333 330 329 330 334 338 341 341 335 332 332 335 331 325 328 331 333 333 334 333 333 334 335 335 333 332 330 328 327 325 324 325 326 325 324 322 320 319 317 315 313 310 307
346 338 335 336 341 343 346 343 339 334 334 334 334 331 330 335 336 336 337 336 334 334 335 336 335 333 332 330 329 328 326 327 327 327 327 325 324 323 322 321 320 319 318 315
349 344 344 346 349 348 344 342 340 340 340 335 334 336 337 339 338 338 338 336 335 335 337 337 335 333 332 332 331 329 328 329 330 329 328 327 326 326 326 326 325 324 322 319
356 353 352 353 351 348 346 345 345 345 342 336 336 338 340 339 339 339 337 336 336 337 338 336 335 335 334 333 332 330 330 331 332 331 330 329 329 329 329 329 327 324 321 318
360 357 356 354 353 349 348 346 345 344 341 338 341 339 340 340 339 339 338 338 338 339 338 337 337 337 336 334 333 331 332 333 333 333 332 331 331 330 329 328 326 322 319 316
0 358 357 355 353 351 347 345 342 341 343 342 340 340 340 339 339 341 339 339 340 339 340 340 339 338 337 335 333 333 334 335 335 334 333 332 331 330 330 328 326 323 319 314
2 0 357 354 350 347 345 343 340 339 338 339 339 341 339 339 341 341 339 340 340 341 342 341 340 339 337 336 335 335 336 337 337 336 335 333 332 331 331 329 328 325 321 316
4 1 356 351 346 343 341 341 339 335 333 335 339 339 338 341 340 340 339 340 342 344 343 342 341 340 339 337 336 337 338 338 338 338 337 335 333 332 332 331 330 327 323 318
8 1 355 348 344 343 341 339 338 337 335 334 335 339 340 340 339 339 340 342 344 345 344 342 342 341 340 339 338 339 340 340 340 339 338 337 335 334 334 334 332 329 325 320
14 1 355 350 346 342 340 340 338 336 334 332 332 337 338 339 339 339 341 344 346 345 344 343 343 342 341 340 340 340 341 341 341 341 339 338 338 337 338 337 336 333 329 323
23 9 360 355 351 347 345 343 341 337 333 331 330 334 337 338 339 341 344 346 346 345 344 344 344 343 342 342 341 342 343 343 343 343 342 341 341 341 342 341 340 338 334 329
28 19 13 9 3 359 356 352 346 340 336 333 332 335 336 338 340 343 346 347 347 346 345 345 344 344 344 343 343 344 345 345 345 345 345 344 344 345 346 346 345 343 341 339
28 24 21 16 12 9 6 1 353 347 342 340 337 336 337 340 343 345 347 347 347 347 346 345 345 345 345 345 345 346 346 347 348 348 348 347 348 349 350 351 351 350 349 349
27 24 20 16 14 13 10 7 1 355 350 345 342 338 339 342 345 347 348 349 348 348 347 346 346 346 347 347 347 347 348 349 350 351 352 351 352 353 354 356 356 356 356 357
21 19 17 15 12 12 11 9 5 360 355 350 345 343 343 346 347 348 349 350 349 348 347 347 347 348 349 349 348 348 350 351 353 355 355 355 355 356 358 0 1 2 2 2
13 13 14 14 11 9 10 8 7 3 358 354 349 347 347 348 348 349 350 350 349 348 348 348 348 349 350 350 350 350 352 353 355 357 358 358 359 360 2 4 6 7 7 7
1 5 8 10 9 9 7 7 7 7 1 358 354 351 350 349 348 349 350 350 350 349 349 349 349 350 351 351 351 352 353 355 357 359 0 1 1 3 5 8 9 11 12 13
353 358 1 3 5 5 5 5 5 5 3 0 357 354 351 349 348 348 349 351 351 350 350 349 350 351 352 352 352 353 354 356 358 359 2 3 3 5 8 10 13 15 16 18
348 353 354 357 360 0 1 2 2 1 2 360 357 355 352 349 348 347 348 351 351 351 350 350 351 352 353 353 353 353 355 357 359 0 4 5 5 7 10 12 15 18 19 21
336 346 348 351 354 356 357 358 358 358 358 357 356 354 351 349 347 347 348 350 351 351 351 351 352 353 354 354 354 354 356 358 360 2 5 7 7 9 11 14 17 20 21 23
327 338 344 347 350 353 352 354 355 354 355 355 354 353 351 349 347 346 347 349 351 352 352 352 352 354 355 355 355 355 356 359 1 4 6 9 10 11 13 16 18 21 23 25
317 329 337 340 344 346 348 350 351 352 352 352 352 351 350 348 347 346 347 349 351 352 352 352 353 354 355 356 355 356 357 360 2 5 7 10 12 13 14 17 19 22 24 26
308 320 329 334 338 343 344 347 348 349 349 349 350 349 348 348 347 346 347 348 351 352 352 353 353 355 356 356 356 356 357 0 4 6 7 10 13 15 16 17 19 21 24 26
301 313 323 329 333 338 341 343 345 346 347 347 347 347 347 347 347 346 346 348 350 352 352 353 354 355 356 357 357 357 357 1 4 6 8 10 13 15 17 18 19 20 22 25
296 309 317 325 329 334 338 340 341 343 345 345 344 346 345 346 346 346 346 347 350 352 352 353 354 355 356 357 357 357 357 0 4 7 8 11 13 15 17 17 18 20 21 23
Height
5894 5892 5890 5888 5886 5884 5882 5879 5875 5872 5869 5866 5863 5858 5853 5848 5843 5837 5830 5822 5812 5802 5791 5780 5767 5753 5737 5721 5706 5689 5671 5652 5634 5618 5604 5591 5577 5563 5551 5538 5527 5517 5508 5500
5894 5891 5889 5886 5883 5880 5878 5875 5872 5869 5867 5864 5860 5856 5850 5845 5839 5832 5824 5814 5803 5792 5781 5769 5756 5740 5725 5709 5692 5674 5654 5636 5619 5603 5589 5576 5562 5549 5536 5524 5512 5502 5494 5485
5892 5890 5887 5884 5880 5877 5875 5873 5870 5868 5865 5861 5858 5855 5848 5841 5833 5825 5816 5805 5794 5783 5772 5759 5744 5729 5714 5697 5678 5659 5639 5621 5606 5591 5577 5564 5550 5536 5524 5513 5502 5492 5482 5474
5891 5888 5885 5882 5879 5876 5874 5871 5868 5866 5862 5857 5854 5850 5843 5835 5826 5818 5808 5798 5787 5775 5762 5748 5734 5719 5702 5683 5664 5644 5625 5609 5593 5579 5565 5551 5538 5526 5514 5504 5493 5482 5472 5463
5890 5887 5884 5881 5878 5875 5872 5869 5866 5862 5858 5854 5849 5843 5838 5829 5820 5811 5802 5790 5779 5766 5753 5740 5724 5707 5689 5670 5650 5631 5613 5597 5583 5568 5553 5539 5526 5514 5504 5494 5483 5472 5461 5451
5889 5886 5883 5880 5877 5874 5870 5868 5864 5860 5856 5851 5845 5838 5832 5823 5814 5805 5794 5783 5771 5759 5746 5730 5714 5696 5677 5658 5639 5620 5604 5588 5573 5558 5543 5528 5516 5506 5496 5485 5474 5463 5452 5440
5888 5885 5882 5879 5875 5872 5868 5865 5861 5856 5852 5847 5839 5833 5827 5817 5808 5798 5786 5775 5763 5751 5737 5720 5704 5686 5667 5649 5630 5612 5595 5579 5564 5548 5533 5518 5507 5496 5486 5475 5463 5451 5440 5428
5886 5884 5881 5877 5874 5870 5866 5862 5858 5852 5846 5842 5835 5828 5821 5811 5801 5790 5780 5769 5757 5743 5727 5711 5695 5677 5658 5639 5620 5603 5587 5571 5555 5539 5524 5510 5497 5486 5475 5462 5449 5436 5423 5411
5885 5883 5880 5876 5872 5868 5864 5859 5854 5848 5841 5835 5830 5823 5813 5804 5795 5785 5774 5762 5749 5734 5719 5703 5686 5667 5648 5629 5611 5595 5579 5563 5546 5530 5516 5502 5489 5477 5465 5451 5436 5421 5406 5391
5885 5882 5879 5875 5871 5866 5861 5855 5850 5843 5835 5827 5823 5816 5808 5798 5789 5779 5767 5755 5741 5726 5711 5694 5676 5658 5639 5621 5603 5586 5570 5554 5538 5523 5507 5493 5481 5468 5454 5439 5423 5406 5388 5371
5883 5881 5877 5873 5868 5863 5858 5853 5846 5840 5832 5823 5815 5813 5803 5794 5783 5772 5760 5747 5734 5719 5703 5686 5668 5650 5631 5613 5596 5580 5565 5549 5533 5517 5501 5486 5473 5459 5444 5427 5410 5391 5371 5350
5883 5880 5876 5872 5867 5861 5856 5850 5843 5836 5828 5819 5810 5807 5797 5788 5777 5766 5754 5741 5727 5712 5695 5679 5661 5643 5625 5608 5591 5576 5560 5544 5528 5511 5495 5480 5466 5451 5435 5417 5398 5377 5353 5330
5882 5879 5875 5871 5868 5861 5854 5846 5838 5831 5823 5815 5806 5802 5791 5782 5771 5760 5748 5734 5720 5704 5688 5672 5655 5638 5621 5603 5587 5571 5555 5539 5523 5506 5489 5474 5459 5444 5428 5409 5388 5364 5339 5316
5880 5877 5873 5869 5863 5857 5850 5843 5834 5826 5818 5810 5803 5795 5786 5776 5765 5754 5741 5728 5713 5698 5682 5667 5651 5634 5616 5598 5582 5566 5551 5535 5519 5502 5485 5470 5455 5438 5421 5401 5379 5354 5329 5308
5880 5876 5871 5866 5860 5854 5847 5840 5831 5822 5814 5806 5799 5790 5781 5770 5759 5748 5735 5722 5707 5692 5677 5662 5647 5629 5611 5594 5578 5563 5548 5532 5516 5499 5482 5466 5450 5433 5416 5396 5374 5348 5324 5305
5878 5875 5870 5865 5859 5852 5845 5838 5829 5819 5810 5802 5793 5785 5775 5765 5754 5742 5730 5716 5702 5688 5673 5658 5642 5625 5608 5591 5575 5560 5544 5529 5513 5496 5479 5463 5447 5430 5413 5393 5371 5347 5324 5305
5876 5873 5869 5864 5857 5851 5842 5835 5826 5817 5807 5798 5789 5780 5770 5760 5748 5736 5724 5711 5697 5684 5670 5655 5639 5622 5605 5588 5573 5557 5542 5527 5511 5495 5478 5462 5446 5429 5411 5392 5371 5349 5327 5308
5873 5869 5864 5859 5854 5846 5842 5831 5822 5813 5804 5794 5784 5774 5764 5754 5742 5731 5720 5707 5694 5680 5666 5651 5634 5618 5601 5585 5569 5554 5540 5525 5510 5495 5479 5462 5447 5430 5413 5395 5375 5353 5332 5313
5869 5864 5859 5854 5848 5843 5836 5826 5817 5809 5802 5791 5780 5770 5759 5748 5738 5727 5716 5704 5690 5677 5663 5647 5632 5616 5599 5583 5567 5553 5539 5524 5510 5496 5480 5464 5448 5433 5417 5400 5381 5360 5340 5321
5866 5861 5856 5850 5843 5837 5833 5824 5813 5806 5796 5788 5777 5765 5755 5744 5735 5725 5713 5700 5687 5673 5659 5644 5629 5613 5596 5581 5566 5553 5539 5525 5512 5498 5482 5466 5450 5435 5420 5404 5386 5367 5348 5331
5862 5858 5853 5847 5841 5835 5828 5819 5811 5803 5796 5784 5773 5762 5751 5741 5731 5721 5709 5697 5684 5670 5656 5641 5626 5611 5595 5580 5566 5553 5539 5525 5512 5498 5483 5469 5454 5439 5424 5408 5392 5375 5358 5342
5857 5853 5848 5842 5836 5832 5823 5815 5808 5801 5791 5780 5770 5758 5747 5736 5726 5715 5705 5694 5681 5667 5653 5639 5624 5609 5594 5579 5566 5552 5539 5526 5512 5499 5485 5472 5458 5444 5430 5415 5401 5386 5370 5355
5852 5849 5844 5839 5836 5828 5820 5813 5806 5797 5787 5777 5767 5755 5743 5732 5722 5712 5702 5691 5678 5664 5650 5636 5622 5608 5593 5579 5566 5553 5540 5527 5514 5501 5488 5476 5463 5450 5437 5424 5410 5396 5382 5367
5847 5843 5840 5835 5830 5824 5816 5809 5802 5793 5784 5774 5764 5752 5740 5729 5719 5709 5698 5688 5675 5662 5648 5634 5620 5606 5592 5579 5566 5553 5541 5528 5516 5504 5492 5480 5468 5457 5444 5431 5418 5406 5393 5379
5840 5838 5834 5830 5825 5820 5813 5805 5797 5789 5780 5770 5760 5749 5736 5725 5715 5705 5695 5684 5672 5659 5645 5632 5618 5605 5592 5579 5566 5554 5542 5530 5518 5507 5496 5484 5473 5461 5449 5437 5425 5413 5401 5388
5833 5831 5828 5824 5819 5813 5807 5800 5793 5785 5776 5766 5756 5744 5732 5721 5711 5701 5691 5681 5670 5657 5643 5630 5617 5604 5592 5579 5566 5555 5544 5532 5521 5510 5500 5489 5477 5466 5454 5442 5430 5419 5408 5396